Location: ???? ??
(36.0534°N, 43.5630°E)
Time: 22:50:36
(UTC+00:00)

COSMOS 2455 - Pass Details

Date: 18 September 2019
Orbit: 900 x 909 km, 67.1° (Epoch: 21 October)

Event Time Altitude Azimuth Distance (km) Brightness Sun altitude
Rises 16:34:09 0° 328° (NNW) 3,542 6.7 -17.7°
Reaches altitude 10° 16:36:43 10° 324° (NW) 2,596 6.0 -18.2°
Maximum altitude 16:42:33 53° 249° (WSW) 1,101 3.5 -19.4°
Drops below altitude 10° 16:48:20 10° 173° (S) 2,577 5.0 -20.5°
Enters shadow 16:48:56 - 172° (S) 2,791 5.1 -20.6°
